Regional Weather Roundup
Issued by NWS Midland/Odessa, TX

Skip options and go directly to product.
Home | Oldest Version | Previous Version | Current Version | All | Text Only | Save Text | Print | Product List | Glossary Off

Skip product version selection by date and time.   

949
ASUS44 KMAF 251410
RWRMAF
MIDLAND AREA WEATHER ROUNDUP
NATIONAL WEATHER SERVICE MIDLAND TX
900 AM CDT SAT OCT 25 2014

...IN SOUTHWEST TEXAS AND SOUTHEAST NEW MEXICO...

CITY           SKY/WX    TMP DP  RH WIND       PRES   REMARKS
ALPINE         SUNNY     62  52  68 SW7       30.34R
ANDREWS        FAIR      62  59  90 S8        30.20R
ARTESIA        NOT AVBL
BIG SPRING     SUNNY     62  59  88 SE7       30.21R
CARLSBAD       CLEAR     54  50  86 W5        30.19R
DRYDEN           N/A     65  61  87 N5        30.17R
FORT STOCKTON  SUNNY     63  55  75 S10       30.20R
GUAD PASS      CLEAR     58  45  62 SW8       30.32R
HOBBS          SUNNY     55  55 100 S6        30.22R FOG
MARFA          SUNNY     52  48  87 N5        30.32R
MIDLAND AIRPK  SUNNY     63  59  85 CALM      30.20R
MIDLAND INTL   SUNNY     63  58  83 S7        30.19R
ODESSA         SUNNY     62  58  86 S5        30.20R
PECOS          FOG       54  52  95 CALM      30.18R VSB 1/4
PRESIDIO       FAIR      65  55  70 N5        30.21R
SEMINOLE       FOG       53  53  98 CALM      30.22R VSB 3/4
SNYDER         SUNNY     58  56  94 CALM      30.19R
WINK           SUNNY     61  57  87 SE5       30.17R
$$
...OTHER STATIONS IN TEXAS...

CITY           SKY/WX    TMP DP  RH WIND       PRES   REMARKS
ABILENE        SUNNY     67  58  72 SW5       30.17R
AMARILLO       SUNNY     56  49  77 S10       30.18R
AUSTIN         SUNNY     63  59  87 CALM      30.17R
BROWNSVILLE    SUNNY     71  66  84 W3        30.15R
CORPUS CHRISTI SUNNY     67  63  87 N5        30.16R
DALLAS FTW     SUNNY     68  59  73 S9        30.13R
DEL RIO        SUNNY     66  61  84 E8        30.16R
EL PASO        CLEAR     58  49  72 NE5       30.23R
HOUSTON INT    SUNNY     63  59  87 N3        30.17R
LUBBOCK        SUNNY     58  52  80 W5        30.20R
SAN ANGELO     SUNNY     60  56  86 SW3       30.18R
SAN ANTONIO    SUNNY     68  59  73 CALM      30.18R
WACO           SUNNY     66  60  81 SE5       30.16R
WICHITA FALLS  NOT AVBL
$$
...OTHER LOCATIONS IN NEW MEXICO...

CITY           SKY/WX    TMP DP  RH WIND       PRES   REMARKS
ALAMAGORDO     NOT AVBL
ALBUQUERQUE    CLEAR     50  27  40 N5        30.31R
CANNON AFB     NOT AVBL
CLOVIS         CLEAR     52  46  82 SW5       30.24R
HOLLOMAN AFB   NOT AVBL
ROSWELL        CLEAR     52  48  86 CALM      30.20R
RUIDOSO        CLEAR     52  36  54 SW8       30.39R
SANTA FE       CLEAR     46  23  40 N16       30.34R WCI  39
TRUTH OR CONSE CLEAR     52  43  71 NW3       30.27R
TUCUMCARI      PTCLDY    51  41  68 W6        30.18R
$$

USA.gov is the U.S. government's official web portal to all federal, state and local government web resources and services.